Location: Góry Miechowskie
(50.3599°N, 20.1803°E)
Time: 21:40:57
(UTC+00:00)

Cosmos 2297 Rocket - Visible Passes

Search period start: 19 September 2024 00:00
Search period end: 29 September 2024 00:00
Orbit: 837 x 844 km, 71.0° (Epoch: 18 September)

Date Brightness Start Highest point End Pass type
(mag) Time Alt. Az. Time Alt. Az. Time Alt. Az.
19 Sep 4.5 01:25:11 10° SE 01:28:55 18° E 01:32:40 10° ENE visible
19 Sep 2.2 03:06:33 10° SSW 03:12:13 85° WNW 03:17:56 10° NNE visible
20 Sep 4.5 01:10:03 10° SE 01:13:37 17° E 01:17:12 10° ENE visible
20 Sep 2.2 02:51:46 13° SSW 02:56:52 88° WNW 03:02:35 10° NNE visible
21 Sep 4.5 00:55:37 12° SE 00:58:20 16° E 01:01:44 10° ENE visible
21 Sep 2.2 02:37:27 20° SSW 02:41:32 88° ESE 02:47:15 10° NNE visible
22 Sep 4.5 00:41:13 13° ESE 00:43:02 16° E 00:46:14 10° ENE visible
22 Sep 2.2 02:23:02 28° SSW 02:26:12 84° ESE 02:31:54 10° NNE visible
23 Sep 4.5 00:26:45 14° ESE 00:27:44 15° E 00:30:43 10° ENE visible
23 Sep 2.2 02:08:34 38° SSW 02:10:51 81° ESE 02:16:33 10° NNE visible
23 Sep 3.4 03:50:55 10° W 03:55:34 25° NW 04:00:14 10° NNE visible
24 Sep 4.5 00:12:12 14° E 00:12:27 14° E 00:15:12 10° ENE visible
24 Sep 2.2 01:54:01 50° S 01:55:31 77° ESE 02:01:12 10° NNE visible
24 Sep 3.4 03:35:50 12° W 03:40:10 26° NW 03:44:55 10° NNE visible
24 Sep 4.6 23:57:36 13° E 23:57:36 13° E 23:59:38 10° ENE visible
25 Sep 2.2 01:39:25 64° SSE 01:40:10 74° ESE 01:45:51 10° NNE visible
25 Sep 3.4 03:21:14 15° W 03:24:47 27° NW 03:29:35 10° NNE visible
25 Sep 4.8 23:42:58 12° E 23:42:58 12° E 23:44:02 10° ENE visible
26 Sep 2.3 01:24:46 70° ESE 01:24:50 70° ESE 01:30:30 10° NNE visible
26 Sep 3.3 03:06:35 19° W 03:09:24 28° NW 03:14:16 10° NNE visible
26 Sep 4.9 23:28:16 10° ENE 23:28:16 10° ENE 23:28:22 10° ENE visible
27 Sep 2.5 01:10:05 62° E 01:10:05 62° E 01:15:08 10° NNE visible
27 Sep 3.3 02:51:53 23° W 02:54:01 29° NW 02:58:56 10° NNE visible
28 Sep 2.9 00:55:21 51° ENE 00:55:21 51° ENE 00:59:47 10° NE visible
28 Sep 3.2 02:37:09 27° WNW 02:38:38 30° NW 02:43:37 10° NNE visible
